Zurück zum Katalog

NAVSTAR 9

USA 1

AktivNavigationMEO
NORAD 15039·PAYLOAD·🇺🇸 United States

Gestartet Jun 13, 1984 von Vandenberg Space Force Base

Loading…

Nächste Überflüge (nächste 24 Stunden)

TLE

AktuellSource: Space-Track

Epoche: Sep 13, 2026, 12:27 UTC

1 15039U 84059A   26256.51907229 -.00000027  00000-0  00000+0 0  9999
2 15039  63.6489  61.7583 0244973  54.4490 120.7205  1.92302761299829

Verfolge NAVSTAR 9 in Echtzeit mit AllMySat

Download on the App Store